IU1DOF-3 Weather Reports


time (UTC)temp
C
wind
direction
speed
KPH
gust
KPH
rain 1hr
cm
rain 24hr
cm
rain mn
cm
humidity
%
barometer
mb
20260503183340 13 299 3.2 3.2 0.00 0.00 0.00 74 1015.5
20260503182326 14 299 3.2 3.2 0.00 0.00 0.00 70 1015.6
20260503181302 14 299 3.2 3.2 0.00 0.00 0.00 67 1015.6
20260503180238 15 299 0.0 0.0 0.00 0.00 0.00 68 1015.4
20260503175214 15 299 1.6 3.2 0.00 0.00 0.00 65 1015.4
20260503174150 15 299 3.2 4.8 0.00 0.00 0.00 63 1015.3
20260503173140 16 299 0.0 0.0 0.00 0.00 0.00 63 1015.5
20260503172118 16 299 0.0 0.0 0.00 0.00 0.00 63 1015.7
20260503171053 16 299 3.2 4.8 0.00 0.00 0.00 63 1015.6
20260503150654 17 299 1.6 3.2 0.00 0.00 0.00 60 1015.5
20260503131318 18 300 6.4 12.9 0.00 0.00 0.00 60 1016.5
20260503130253 17 300 0.0 1.6 0.00 0.00 0.00 62 1016.6
20260503081423 15 300 0.0 0.0 0.00 0.00 0.00 60 1018.0
20260503080358 15 300 0.0 0.0 0.00 0.00 0.00 63 1017.7
20260503072242 13 299 0.0 1.6 0.00 0.00 0.00 65 1018.1
20260503071231 12 300 0.0 0.0 0.00 0.00 0.00 75 1017.9
20260503070206 11 300 0.0 1.6 0.00 0.00 0.00 80 1018.1
20260503055022 10 300 0.0 0.0 0.00 0.00 0.00 77 1018.0
20260503053959 10 300 0.0 0.0 0.00 0.00 0.00 84 1018.1
20260503052950 8 300 0.0 0.0 0.00 0.00 0.00 91 1018.1
20260503051940 8 300 0.0 0.0 0.00 0.00 0.00 89 1018.1
20260503050919 9 300 0.0 0.0 0.00 0.00 0.00 83 1018.2
20260503045854 8 300 0.0 0.0 0.00 0.00 0.00 84 1018.2
20260503044840 8 300 0.0 0.0 0.00 0.00 0.00 88 1018.2
20260503043822 7 300 0.0 1.6 0.00 0.00 0.00 91 1018.1
20260503042758 7 300 0.0 0.0 0.00 0.00 0.00 89 1017.7
20260503041740 8 300 1.6 1.6 0.00 0.00 0.00 87 1018.1
20260503040727 7 300 0.0 1.6 0.00 0.00 0.00 91 1018.0
20260503035702 8 299 0.0 0.0 0.00 0.00 0.00 90 1018.3
20260503034639 8 299 1.6 1.6 0.00 0.00 0.00 88 1017.9
20260503033615 8 299 0.0 0.0 0.00 0.00 0.00 89 1018.2
20260503032550 7 299 0.0 0.0 0.00 0.00 0.00 91 1018.2
20260503031540 8 299 0.0 0.0 0.00 0.00 0.00 90 1018.2
20260503030519 8 299 0.0 0.0 0.00 0.00 0.00 90 1018.3
20260503025454 8 299 3.2 3.2 0.00 0.00 0.00 90 1018.4
20260503024440 8 299 0.0 1.6 0.00 0.00 0.00 89 1018.6
20260503023423 8 299 0.0 1.6 0.00 0.00 0.00 89 1018.5
20260503022358 7 299 0.0 0.0 0.00 0.00 0.00 90 1018.6
20260503021334 7 299 0.0 0.0 0.00 0.00 0.00 92 1018.7
20260503020311 8 299 0.0 0.0 0.00 0.00 0.00 90 1018.8
20260503015305 7 299 3.2 3.2 0.00 0.00 0.00 90 1018.7
20260503014254 7 299 0.0 0.0 0.00 0.00 0.00 91 1018.8
20260503013240 7 299 0.0 0.0 0.00 0.00 0.00 90 1018.8
20260503012223 8 299 0.0 1.6 0.00 0.00 0.00 89 1018.8
20260503011158 8 299 3.2 3.2 0.00 0.00 0.00 89 1019.0
20260503010134 8 299 3.2 3.2 0.00 0.00 0.00 90 1019.1
20260503005111 8 299 1.6 1.6 0.00 0.00 0.00 90 1019.1
20260503004102 8 299 1.6 3.2 0.00 0.00 0.00 91 1018.9
20260503003039 8 299 0.0 0.0 0.00 0.00 0.00 91 1019.1
20260503002015 8 298 1.6 1.6 0.00 0.00 0.00 90 1019.1
20260503000951 8 299 1.6 1.6 0.00 0.00 0.00 90 1019.3
20260502235940 8 299 1.6 3.2 0.00 0.00 0.00 91 1019.4
20260502234919 8 299 0.0 0.0 0.00 0.00 0.00 92 1019.3
20260502233855 8 299 0.0 0.0 0.00 0.00 0.00 90 1019.3
20260502232841 8 297 3.2 3.2 0.00 0.00 0.00 91 1019.7
20260502231823 8 298 0.0 1.6 0.00 0.00 0.00 90 1019.7
20260502230758 9 299 0.0 0.0 0.00 0.00 0.00 89 1019.5
20260502225740 9 299 0.0 1.6 0.00 0.00 0.00 89 1019.6
20260502224727 9 298 1.6 1.6 0.00 0.00 0.00 88 1019.7
20260502223703 9 298 1.6 1.6 0.00 0.00 0.00 88 1019.7
20260502222638 9 300 0.0 1.6 0.00 0.00 0.00 88 1019.8
20260502221614 9 294 0.0 0.0 0.00 0.00 0.00 88 1019.8
20260502220551 10 286 3.2 3.2 0.00 0.00 0.00 87 1019.7
20260502215540 10 299 1.6 3.2 0.00 0.00 0.00 86 1019.8
20260502214520 10 299 0.0 0.0 0.00 0.00 0.00 87 1019.5
20260502213454 10 303 0.0 0.0 0.00 0.00 0.00 86 1019.5
20260502212440 10 303 3.2 3.2 0.00 0.00 0.00 86 1019.6
20260502211423 10 298 1.6 3.2 0.00 0.00 0.00 86 1019.9
20260502210359 10 298 1.6 1.6 0.00 0.00 0.00 85 1019.9
20260502205340 10 299 0.0 0.0 0.00 0.00 0.00 86 1019.8
20260502204327 11 278 1.6 3.2 0.00 0.00 0.00 85 1019.9
20260502203303 11 274 3.2 3.2 0.00 0.00 0.00 84 1019.7
20260502202240 11 298 1.6 3.2 0.00 0.00 0.00 85 1019.9
20260502201214 11 298 1.6 1.6 0.00 0.00 0.00 85 1019.8
20260502200152 11 303 1.6 3.2 0.00 0.00 0.00 83 1019.8
20260502195140 11 286 1.6 3.2 0.00 0.00 0.00 83 1019.5
20260502194119 11 299 3.2 3.2 0.00 0.00 0.00 83 1019.7
20260502193056 11 288 3.2 3.2 0.00 0.00 0.00 83 1019.7
20260502192040 12 303 1.6 1.6 0.00 0.00 0.00 83 1019.5
20260502191023 12 303 3.2 3.2 0.00 0.00 0.00 79 1019.4
20260502185959 12 303 1.6 1.6 0.00 0.00 0.00 81 1019.4
20260502184940 12 300 3.2 3.2 0.00 0.00 0.00 81 1019.2